Location: Home
(42.5358°N, 72.7383°W)
Time: 06:04:51
(UTC-05:00)

Courier 1B Rocket - Pass Details

Date: 30 November 2021
Orbit: 920 x 1202 km, 28.2° (Epoch: 25 January)

Event Time Altitude Azimuth Distance (km) Brightness Sun altitude
Rises 22:53:20 0° 212° (SSW) 3,582 - -67.1°
Reaches altitude 10° 22:57:40 10° 185° (S) 2,611 - -67.5°
Maximum altitude 23:00:12 13° 161° (SSE) 2,414 - -67.7°
Drops below altitude 10° 23:02:45 10° 136° (SE) 2,602 - -67.9°
Sets 23:07:02 0° 109° (ESE) 3,557 - -68.2°
